[[{"header":{"parameterUnit":"m.s-1","parameterCategory":1,"la1":30.2991,"la2":30.254,"lo1":-89.0895,"lo2":-89.0444,"dy":0.0017,"dx":0.0017,"nx":28,"ny":28,"refTime":"2024-07-21T09:00:00:Z","depth":0,"parameterNumber":2,"parameterNumberName":"U-component_of_WINDS"},"data":[0,0,0,0,0,0,0,0,0,0,0,0,0,0,0,0,0,0,0,0,0,0,0,0,0,0,0,0,0,0,0,0,0,0,0,0,0,0,0,0,0,0,0,0,0,0,0,0,0,0,0,0,0,0,0,0,0,0,2.5318,2.5318,0,2.536,2.536,2.5361,2.5336,2.5335,2.5334,2.5332,2.5374,2.5377,2.5379,0,0,0,0,0,0,0,0,0,0,0,0,0,2.5213,2.5215,2.5318,2.5318,2.5319,2.536,2.536,2.5361,2.5336,2.5335,2.5333,2.5332,2.5374,2.5376,2.5379,0,0,0,0,0,0,0,0,0,0,0,0,0,2.5257,2.5216,2.5318,2.5312,2.5311,2.536,2.536,2.5361,2.5336,2.5335,2.5333,2.5331,2.5373,2.5376,2.5379,2.5436,0,0,2.539,2.5391,0,0,0,0,0,0,0,0,2.5255,2.5261,2.5312,2.5312,2.5312,2.5341,2.5339,2.5386,2.5337,2.5327,2.5332,2.533,2.5365,2.5369,2.538,2.5438,2.544,2.539,2.5392,2.5393,2.5394,0,0,0,0,0,0,0,2.5252,2.5259,2.5335,2.5313,2.5313,2.5305,2.531,2.5348,2.5355,2.5328,2.5326,2.5331,2.5364,2.5377,2.5381,2.544,2.539,2.5393,2.5395,2.5396,2.5542,2.5543,0,0,0,0,0,0,2.5249,2.5257,2.5333,2.5336,2.5278,2.5309,2.5314,2.5333,2.5355,2.5356,2.5333,2.533,2.5372,2.5377,2.5383,2.5446,2.5393,2.5396,2.5398,2.554,2.5542,2.5544,0,0,0,0,0,0,2.5247,2.5256,2.5332,2.5296,2.5305,2.5313,2.5335,2.5335,2.5348,2.5359,2.536,2.5345,2.5371,2.5378,2.5422,2.5448,2.5398,2.5401,2.5537,2.554,2.5543,2.5577,0,0,0,0,0,0,2.5244,2.5256,2.5278,2.5296,2.5307,2.5371,2.5337,2.5337,2.5354,2.5351,2.537,2.5372,2.537,2.5417,2.5425,2.5451,2.5404,2.5535,2.5539,2.5542,2.5574,2.5581,2.5587,0,0,0,0,0,2.5241,2.5287,2.528,2.5289,2.5335,2.5373,2.5379,2.5376,2.5356,2.5378,2.5384,2.5371,2.5444,2.5422,2.5431,2.5458,2.5533,2.5538,2.5542,2.5571,2.5579,2.5587,0,0,0,0,0,0,2.5273,2.529,2.5281,2.5336,2.5353,2.5369,2.5396,2.5386,2.541,2.5405,2.5401,2.5406,2.5451,2.546,2.5434,2.5512,2.5485,2.5492,2.5504,2.5513,2.5519,2.5515,2.5406,0,0,0,0,0,2.5286,2.5316,2.5329,2.5375,2.5384,2.5389,2.5405,2.5402,2.5419,2.5426,2.5436,2.5453,2.5479,2.5497,2.5522,2.5576,2.5577,2.5599,2.5605,2.5611,2.5615,2.564,2.5648,2.5558,2.5558,2.5557,0,0,2.5314,2.5327,2.5346,2.5382,2.5395,2.5424,2.5395,2.5429,2.5449,2.5431,2.5472,2.548,2.5499,2.5546,2.5568,2.5555,2.5641,2.5616,2.562,2.5622,2.5645,2.5653,2.5661,2.556,2.556,2.5559,0,0,2.5379,2.5393,2.5431,2.5444,2.5464,2.5466,2.5475,2.5492,2.5496,2.5537,2.5523,2.5548,2.5594,2.5607,2.5619,2.5685,2.5673,2.5694,2.5727,2.5751,2.5758,2.5764,2.5784,2.5792,2.5699,2.5699,2.5699,0,2.5411,2.5455,2.5452,2.5485,2.5499,2.5484,2.5521,2.5534,2.5561,2.557,2.5556,2.5611,2.5623,2.5671,2.5687,2.5699,2.5707,2.5691,2.5758,2.5764,2.577,2.5788,2.5796,2.5701,2.5701,2.5701,2.5701,0,2.5491,2.5522,2.555,2.5574,2.5593,2.5628,2.5628,2.5647,2.5641,2.5644,2.5684,2.5698,2.5723,2.5735,2.5731,2.5782,2.5773,2.5758,2.5731,2.578,2.5798,2.5805,2.5704,2.5704,2.5703,2.5702,0,0,2.5578,2.5598,2.5608,2.5618,2.5637,2.566,2.5693,2.5717,2.5731,2.575,2.5776,2.5814,2.5799,2.5814,2.581,2.5832,2.5878,2.5814,2.5814,2.5822,2.5931,2.594,2.5948,2.5871,2.5873,2.5874,2.5928,0,2.5641,2.5698,2.5695,2.5748,2.5774,2.5758,2.5786,2.58,2.5804,2.5825,2.5829,2.5855,2.5836,2.5843,2.5864,2.5868,2.59,2.5865,2.5892,2.5893,2.5885,2.5958,2.5968,2.6019,2.5935,2.5937,2.5938,0,2.5722,2.5742,2.5797,2.5808,2.5819,2.5844,2.5864,2.5886,2.5901,2.5901,2.5916,2.5908,2.5939,2.5913,2.5954,2.593,2.5941,2.5944,2.5946,2.5946,2.5916,2.5957,2.6036,2.6042,2.5949,2.5948,2.5947,0,2.5775,2.5815,2.5852,2.5861,2.5877,2.5894,2.5901,2.5914,2.5927,2.5945,2.5953,2.5975,2.5986,2.6002,2.6,2.5982,2.604,2.6015,2.6039,2.6039,2.6051,2.6049,2.6129,2.6063,2.6063,2.6063,2.6063,0,2.5844,2.5877,2.5875,2.5898,2.5934,2.5929,2.5965,2.597,2.5981,2.6002,2.5992,2.6012,2.6009,2.6029,2.6028,2.606,2.6066,2.6065,2.6064,2.6065,2.6064,2.607,2.6065,2.6065,2.6064,2.6064,2.6064,0,2.5908,2.5909,2.5947,2.5958,2.5961,2.5986,2.5995,2.6015,2.6017,2.6045,2.6051,2.6053,2.6076,2.6076,2.6103,2.6101,2.6139,2.6136,2.6134,2.6132,2.6155,2.6152,2.6239,2.6249,2.618,2.618,2.6181,0,2.595,2.5975,2.5988,2.6001,2.6009,2.6031,2.6044,2.604,2.6054,2.6071,2.6088,2.611,2.6127,2.6164,2.6167,2.6187,2.6181,2.621,2.6184,2.6183,2.6178,2.6175,2.6176,2.6215,2.6216,2.6216,2.6217,0,2.6024,2.6022,2.6042,2.606,2.6076,2.6091,2.6104,2.6116,2.6113,2.6129,2.6152,2.6165,2.6191,2.6211,2.6229,2.6235,2.6224,2.6225,2.6231,2.6231,2.6227,2.6226,2.6144,2.6223,2.6222,2.6222,2.6221,2.6221,2.6076,2.6096,2.6107,2.6128,2.6137,2.6149,2.6167,2.617,2.6189,2.6209,2.6206,2.623,2.6241,2.6264,2.6272,2.629,2.6279,2.6289,2.6291,2.6293,2.6293,2.6227,2.6294,2.6293,2.6293,2.6293,2.6293,0,2.6146,2.6152,2.6171,2.6189,2.6205,2.6194,2.6207,2.6221,2.6242,2.6253,2.6269,2.6293,2.6313,2.6317,2.6335,2.6349,2.6344,2.6353,2.6351,2.6351,2.6304,2.6295,2.6356,2.6356,2.6356,2.6356,2.6356,2.6356,2.6185,2.6216,2.6215,2.625,2.6255,2.6278,2.6286,2.6296,2.6304,2.6332,2.6347,2.635,2.6357,2.6375,2.6392,2.6392,2.6398,2.6409,2.6407,2.6362,2.6355,2.6349,2.6341,2.6411,2.6411,2.6453,2.6453,2.6454]},{"header":{"parameterUnit":"m.s-1","parameterCategory":1,"la1":30.2991,"la2":30.254,"lo1":-89.0895,"lo2":-89.0444,"dy":0.0017,"dx":0.0017,"nx":28,"ny":28,"refTime":"2024-07-21T09:00:00:Z","depth":0,"parameterNumber":3,"parameterNumberName":"V-component_of_WINDS"},"data":[0,0,0,0,0,0,0,0,0,0,0,0,0,0,0,0,0,0,0,0,0,0,0,0,0,0,0,0,0,0,0,0,0,0,0,0,0,0,0,0,0,0,0,0,0,0,0,0,0,0,0,0,0,0,0,0,0,0,1.0013,1.0014,0,1.0112,1.0113,1.0114,1.0131,1.013,1.0129,1.0128,1.023,1.0233,1.0237,0,0,0,0,0,0,0,0,0,0,0,0,0,0.9837,0.984,1.0012,1.0014,1.0015,1.0112,1.0113,1.0114,1.0131,1.013,1.0129,1.0128,1.0229,1.0233,1.0237,0,0,0,0,0,0,0,0,0,0,0,0,0,0.9922,0.9841,1.0012,1.0035,1.0038,1.0111,1.0113,1.0115,1.0131,1.013,1.0129,1.0128,1.0227,1.0233,1.0238,1.0296,0,0,1.0254,1.0256,0,0,0,0,0,0,0,0,0.9917,0.9929,1.003,1.0034,1.0037,1.0108,1.0088,1.0175,1.0132,1.0096,1.0128,1.0127,1.019,1.0199,1.022,1.03,1.0305,1.0254,1.0257,1.026,1.0261,0,0,0,0,0,0,0,0.9912,0.9925,1.0052,1.0032,1.0036,1.004,1.0051,1.0105,1.0149,1.0099,1.01,1.0112,1.0192,1.0215,1.0222,1.0306,1.0254,1.0259,1.0262,1.0264,1.0439,1.044,0,0,0,0,0,0,0.9902,0.992,1.0049,1.0055,0.9973,1.0044,1.0056,1.0086,1.0148,1.0157,1.0113,1.0112,1.0207,1.0216,1.0226,1.0298,1.026,1.0265,1.0268,1.0437,1.0439,1.0441,0,0,0,0,0,0,0.9898,0.9913,1.0045,0.9988,1.0005,1.0049,1.0082,1.0089,1.0112,1.0159,1.0167,1.0128,1.0206,1.0219,1.0278,1.0302,1.0267,1.0272,1.0435,1.0438,1.044,1.0442,0,0,0,0,0,0,0.9893,0.9911,0.9934,0.9988,1.0008,1.0095,1.0084,1.0092,1.0121,1.0121,1.0176,1.0183,1.0206,1.027,1.0283,1.0308,1.0276,1.0433,1.0436,1.0439,1.044,1.0444,1.0447,0,0,0,0,0,0.9886,0.9931,0.9935,0.9951,1.0037,1.0096,1.0108,1.0133,1.0123,1.0146,1.0176,1.0182,1.0297,1.0276,1.0291,1.0318,1.0432,1.0436,1.0439,1.0438,1.0443,1.0447,0,0,0,0,0,0,0.9878,0.9938,0.9944,1.0007,1.0046,1.0099,1.0129,1.0137,1.018,1.0179,1.0208,1.022,1.0278,1.0304,1.028,1.0377,1.0364,1.037,1.0358,1.0363,1.0367,1.0359,1.028,0,0,0,0,0,0.9884,0.9928,0.9977,1.0028,1.0048,1.0085,1.0112,1.0128,1.017,1.0187,1.0221,1.0262,1.0307,1.0336,1.0381,1.0443,1.0455,1.0469,1.0473,1.0475,1.0481,1.0516,1.0522,1.0452,1.0451,1.0451,0,0,0.9896,0.9934,0.996,1.0028,1.006,1.0104,1.0099,1.0146,1.0179,1.0194,1.0252,1.0279,1.0326,1.0387,1.0416,1.041,1.0503,1.048,1.0482,1.0486,1.052,1.0526,1.0532,1.0454,1.0453,1.0453,0,0,0.9941,0.9974,1.002,1.0052,1.0102,1.0126,1.0137,1.0188,1.0207,1.0266,1.0277,1.0317,1.0394,1.0428,1.0455,1.0511,1.0518,1.0525,1.0544,1.0578,1.0583,1.0588,1.0609,1.0615,1.053,1.053,1.053,0,0.995,1.0017,1.0042,1.0089,1.0119,1.0134,1.018,1.0211,1.0272,1.0292,1.0285,1.0382,1.0415,1.0484,1.0498,1.0519,1.0532,1.0519,1.058,1.0586,1.0591,1.061,1.0618,1.053,1.053,1.053,1.053,0,1.0025,1.0072,1.0103,1.0161,1.0194,1.0241,1.0273,1.0303,1.0316,1.0341,1.04,1.044,1.0493,1.051,1.0523,1.0581,1.0576,1.0574,1.0562,1.0598,1.0617,1.0624,1.0531,1.0531,1.0531,1.0531,0,0,1.0068,1.014,1.0151,1.0178,1.0233,1.0269,1.0316,1.0367,1.0393,1.0434,1.0474,1.0539,1.0538,1.0568,1.0585,1.0614,1.0657,1.0609,1.0611,1.0617,1.0723,1.0724,1.0732,1.0661,1.0663,1.0664,1.0719,0,1.0119,1.0204,1.0228,1.0299,1.0342,1.0356,1.0397,1.0435,1.046,1.05,1.0527,1.0572,1.0567,1.0586,1.0615,1.0645,1.0678,1.0641,1.0699,1.0701,1.0687,1.0742,1.0744,1.0793,1.0726,1.0728,1.0729,0,1.019,1.0233,1.0308,1.0358,1.0377,1.0413,1.0462,1.05,1.0543,1.0559,1.0593,1.0607,1.0656,1.0641,1.0709,1.0683,1.0708,1.0726,1.0729,1.0735,1.0717,1.075,1.081,1.0817,1.074,1.0739,1.0739,0,1.0214,1.029,1.0345,1.0368,1.0427,1.0452,1.0478,1.052,1.0549,1.0592,1.0611,1.0658,1.0685,1.0721,1.0748,1.0734,1.0814,1.08,1.0828,1.0827,1.0844,1.0843,1.0909,1.086,1.086,1.086,1.0859,0,1.0269,1.0314,1.0357,1.039,1.0442,1.0469,1.0519,1.0545,1.0583,1.0622,1.0637,1.0673,1.0706,1.0747,1.0768,1.0821,1.0832,1.0846,1.0852,1.0845,1.0844,1.0862,1.0859,1.0862,1.0861,1.0861,1.086,0,1.0304,1.0334,1.0395,1.0446,1.046,1.0495,1.0539,1.0572,1.0597,1.0646,1.0659,1.0698,1.0746,1.0776,1.0838,1.0852,1.0911,1.0914,1.0896,1.0898,1.0924,1.0922,1.1005,1.1017,1.096,1.096,1.0961,0,1.0337,1.0372,1.0427,1.0454,1.048,1.0524,1.0553,1.0581,1.0612,1.0664,1.0691,1.074,1.0781,1.0858,1.0892,1.0939,1.0944,1.097,1.0951,1.0944,1.0945,1.0942,1.0946,1.0973,1.0974,1.0974,1.0974,0,1.0392,1.0405,1.0448,1.0495,1.0531,1.057,1.0608,1.063,1.0664,1.0698,1.0748,1.0779,1.0842,1.0891,1.0941,1.0968,1.0977,1.098,1.0989,1.0983,1.0971,1.0978,1.0905,1.0978,1.0978,1.0977,1.0977,1.0977,1.0427,1.0459,1.0502,1.0549,1.0581,1.0617,1.0651,1.068,1.0722,1.0775,1.0789,1.0841,1.0884,1.0952,1.0979,1.102,1.1017,1.103,1.1033,1.1036,1.1036,1.0964,1.103,1.103,1.1029,1.1029,1.1029,0,1.0483,1.0512,1.0554,1.0608,1.0645,1.065,1.0694,1.0724,1.077,1.0808,1.0849,1.0906,1.0953,1.099,1.1039,1.1065,1.107,1.1077,1.1075,1.1081,1.1037,1.1024,1.1072,1.1072,1.1072,1.1072,1.1072,1.1072,1.0516,1.0571,1.0589,1.066,1.0688,1.0739,1.0763,1.0797,1.0828,1.0891,1.093,1.0954,1.0993,1.1044,1.1088,1.1098,1.1115,1.1121,1.1131,1.1089,1.1084,1.108,1.1068,1.1124,1.1124,1.1172,1.1173,1.1173]}]]